Flag for U.S.A. Weather past 2 weeks in Cambridge, Massachusetts, U.S.A.

Now
74 °F

Passing clouds.


Feels Like: 73 °F
Forecast: 71 / 85 °F
Wind: 10 mph from Southwest

Location: Logan International Airport

Current Time: Aug 4, 2015 at 2:35:51 AM

Latest Report: Aug 4, 2015 at 1:54 AM


Visibility: 10 mi

Pressure: 29.81 "Hg

Humidity: 88%

Dew point: 70 °F

Location of CambridgeLocation

Historic Weather in Cambridge — Graph

°F

Cambridge temperature yesterday

Maximum temperature yesterday: 90 °F (at 2:54 PM)
Minimum temperature yesterday: 68 °F (at 4:54 AM)
Average temperature yesterday: 79 °F

Past Weeks' High & Low Weather Summary

 TemperatureHumidityPressure
High92 °F (Jul 29, 5:54 PM)100% (Aug 3, 5:54 AM)30.06 "Hg (Aug 3, 5:54 AM)
Low62 °F (Jul 25, 4:54 AM)29% (Jul 31, 2:54 PM)29.54 "Hg (Jul 21, 6:54 PM)
Average76 °F63%29.84 "Hg
* Reported Jul 20 12:54 AM — Aug 4 12:54 AM, Cambridge, Weather by CustomWeather, © 2015

Note: Actual official high and low records may vary slightly from our data, if they occured in-between our weather recording intervals... More about our weather records

Advertising

Cambridge weather history for previous 24 hours

 ConditionsComfort  
Time TempWeatherWind HumidityBarometerVisibility
12:54 AM
Tue, Aug 4
74 °FClear.10 mph85%29.80 "Hg10 mi
10:54 PM
Mon, Aug 3
76 °FPassing clouds.14 mph74%29.80 "Hg10 mi
9:54 PM77 °FPassing clouds.12 mph69%29.80 "Hg10 mi
8:54 PM77 °FThundershowers. Partly sunny.13 mph62%29.79 "Hg10 mi
7:54 PM79 °FBroken clouds.14 mph56%29.77 "Hg10 mi
6:54 PM81 °FScattered clouds.15 mph53%29.75 "Hg10 mi
5:54 PM84 °FScattered clouds.21 mph48%29.75 "Hg10 mi
4:54 PM86 °FPassing clouds.18 mph48%29.75 "Hg10 mi
3:54 PM88 °FPassing clouds.20 mph40%29.76 "Hg10 mi
2:54 PM90 °FPassing clouds.18 mph34%29.77 "Hg10 mi
1:54 PM88 °FPassing clouds.15 mph40%29.79 "Hg10 mi
12:54 PM88 °FPassing clouds.20 mph39%29.80 "Hg10 mi
11:54 AM88 °FPassing clouds.18 mph36%29.82 "Hg10 mi
10:54 AM86 °FPassing clouds.16 mph40%29.83 "Hg10 mi
9:54 AM83 °FSunny.13 mph50%29.83 "Hg10 mi
8:54 AM77 °FSunny.10 mph71%29.85 "Hg10 mi
7:54 AM74 °FScattered clouds.9 mph82%29.85 "Hg10 mi
6:54 AM71 °FScattered clouds.8 mph90%29.85 "Hg10 mi
5:54 AM68 °FPassing clouds.9 mph100%29.85 "Hg7 mi
4:54 AM68 °FPassing clouds.6 mph93%29.84 "Hg10 mi
3:54 AM69 °FClear.5 mph90%29.85 "Hg10 mi
2:54 AM69 °FPassing clouds.7 mph90%29.85 "Hg10 mi
Weather by CustomWeather, © 2015

See weather overviewHow to use our weather pages